Cloud_Cover
99 100 100 99 100 100 100 100 100 100 100 82 95 100 100 100 100 100 100 100 100 100 100 100 100 100 100 100 100 100 100 100 100 100 100 100 100 100
96 100 100 96 53 55 69 98 100 100 100 100 100 98 100 91 100 100 100 100 100 100 100 100 100 100 100 100 100 100 100 100 100 100 100 100 100 100
80 75 82 46 76 81 100 100 97 100 100 100 100 100 100 100 100 100 100 100 100 100 100 100 100 100 100 100 100 100 100 100 100 100 100 100 100 100
100 84 100 100 100 100 100 100 100 97 100 100 96 100 100 100 100 100 100 100 100 100 100 100 100 100 100 100 100 100 100 100 100 100 100 100 100 100
86 100 99 97 100 98 96 71 46 78 100 91 100 100 100 100 100 100 100 100 100 100 100 100 100 100 100 100 100 94 100 100 100 100 100 100 50 100
81 67 100 100 100 69 75 26 40 100 40 72 100 100 100 100 100 100 100 100 100 100 95 85 94 100 100 100 100 100 100 100 100 100 100 100 99 62
100 100 100 100 98 62 8 5 5 10 25 58 100 100 87 89 79 69 76 44 20 6 5 5 29 90 100 100 98 100 100 100 100 100 100 97 78 100
47 65 63 14 30 74 79 29 70 8 6 35 16 14 5 5 8 6 5 5 5 14 40 99 98 96 56 89 100 99 99 99 99 99 61 100 100 100
5 5 4 4 5 5 5 5 4 5 5 5 5 5 10 44 32 7 6 11 22 66 28 62 26 5 5 5 5 5 5 5 10 44 40 67 30 12
5 5 5 5 12 5 5 5 5 5 5 5 5 5 5 5 5 5 5 5 5 5 5 69 5 5 5 5 5 5 46 50 9 5 6 5 7 23
2 5 5 5 16 20 5 18 12 5 5 6 5 16 25 18 62 23 78 61 9 5 5 14 8 14 5 5 5 70 9 5 5 5 5 5 7 83
5 5 34 54 53 51 44 22 5 5 5 5 5 5 5 5 5 6 6 35 65 38 19 44 34 17 34 5 7 5 5 0 5 5 5 8 66 100
9 39 49 55 10 5 5 5 15 6 5 5 5 5 5 5 5 5 20 60 90 97 76 99 98 99 89 50 6 5 5 5 5 4 5 5 6 20
26 70 48 46 5 5 19 56 74 46 7 8 5 7 9 7 65 99 100 100 100 96 95 100 97 100 100 100 90 6 5 5 8 5 16 5 5 5
80 30 5 5 5 5 5 31 7 8 5 6 25 41 51 32 31 96 100 100 100 100 100 100 100 100 100 100 92 97 100 21 12 8 38 15 6 12
31 6 5 5 5 5 5 5 5 5 6 16 51 27 76 100 100 100 100 100 99 93 92 100 100 100 100 95 95 100 100 98 30 87 99 13 6 5
5 5 5 5 5 5 5 5 15 56 54 55 99 100 100 100 100 100 100 100 100 93 64 18 87 98 100 100 100 96 100 100 94 76 30 80 34 6
5 28 38 5 66 79 26 32 44 82 100 88 100 100 100 100 100 98 100 100 98 91 78 64 62 90 68 6 11 59 75 100 54 6 9 100 66 16
5 5 5 49 90 100 96 50 55 53 70 100 100 100 100 100 100 99 98 100 94 69 64 61 94 99 100 98 5 8 48 12 53 7 5 71 82 11
5 5 61 57 34 56 88 55 34 7 55 100 100 100 100 100 95 94 100 100 100 96 100 82 86 93 100 93 100 49 5 5 5 53 54 12 15 29
9 42 37 17 76 39 29 29 40 32 33 84 100 100 100 100 100 99 100 100 99 100 100 100 36 94 97 100 99 22 70 5 5 75 91 98 100 100
13 69 99 90 92 53 19 9 62 58 28 11 6 89 89 98 100 100 100 100 100 99 100 100 65 100 100 100 99 94 100 98 50 72 73 69 98 100
47 33 70 29 21 5 12 43 57 38 51 33 35 49 55 99 100 100 100 100 100 100 100 98 83 95 100 100 100 98 100 100 100 100 88 20 5 5